Weather History for KBAX - December, 2011

Change the Weather History Date:

Friday, December 2, 2011

  Actual Average (KP58) Record (KP58)
Temperature  
Mean Temperature 26 °F -  
Max Temperature 32 °F 37 °F 54 °F (2012)
Min Temperature 19 °F 28 °F 19 °F (2002)
Degree Days  
Heating Degree Days 40    
Moisture  
Dew Point 24 °F    
Average Humidity 84    
Maximum Humidity 100    
Minimum Humidity 64    
Precipitation  
Precipitation 0.00 in - - ()
Sea Level Pressure  
Sea Level Pressure 30.35 in    
Wind  
Wind Speed 6 mph (NW)    
Max Wind Speed 14 mph    
Max Gust Speed 21 mph    
Visibility 8 miles    
Events Snow    
Averages and records for this station are not official NWS values.
T = Trace of Precipitation, MM = Missing Value Source: NWS Daily Summary

Daily Weather History Graph

Daily Weather History Graph

Search for Another Location

Airport or City:

Trip Planner

Search our weather history database for the weather conditions in past years. The results will help you decide how hot, cold, wet, or windy it might be!

Date:

Astronomy

Dec. 02, 2011 Rise Set
Actual Time 7:46 AM EST 4:55 PM EST
Civil Twilight 7:14 AM EST 5:27 PM EST
Nautical Twilight 6:38 AM EST 6:03 PM EST
Astronomical Twilight 6:03 AM EST 6:38 PM EST
Moon 12:46 PM EST (12/2) 12:02 AM EST (12/2)
Length of Visible Light 10h 13m
Length of Day
9h 08m
First Quarter, 53% of the Moon is Illuminated
Dec 2
First Quarter
Dec 10
Full
Dec 17
Last Quarter
Dec 24
New
Jan 1
First Quarter

Hourly Weather History & Observations

Time (EST) Temp. Windchill Dew Point Humidity Pressure Visibility Wind Dir Wind Speed Gust Speed Precip Events Conditions
12:13 AM 32.0 °F - 28.4 °F 87% 30.20 in 10.0 mi Calm Calm - N/A   Overcast
12:34 AM 32.0 °F 28.7 °F 28.4 °F 87% 30.21 in 10.0 mi West 3.5 mph - N/A   Overcast
12:53 AM 32.0 °F 28.7 °F 28.4 °F 87% 30.21 in 10.0 mi West 3.5 mph - N/A Snow Light Snow
1:13 AM 32.0 °F - 30.2 °F 93% 30.20 in 3.0 mi Calm Calm - N/A Snow Light Snow
1:34 AM 32.0 °F - 30.2 °F 93% 30.21 in 1.8 mi Calm Calm - N/A Snow Light Snow
1:53 AM 32.0 °F - 30.2 °F 93% 30.21 in 1.5 mi Calm Calm - N/A Snow Light Snow
2:13 AM 32.0 °F 28.7 °F 32.0 °F 100% 30.21 in 1.2 mi NW 3.5 mph - N/A Snow Light Snow
2:34 AM 32.0 °F 26.4 °F 32.0 °F 100% 30.21 in 1.5 mi North 5.8 mph - N/A Snow Light Snow
2:53 AM 32.0 °F 24.8 °F 32.0 °F 100% 30.22 in 3.0 mi North 8.1 mph - N/A Snow Light Snow
3:14 AM 32.0 °F 24.2 °F 32.0 °F 100% 30.22 in 3.0 mi North 9.2 mph - N/A Snow Light Snow
3:33 AM 32.0 °F 25.6 °F 32.0 °F 100% 30.22 in 2.5 mi North 6.9 mph - N/A Snow Light Snow
3:54 AM 32.0 °F 24.2 °F 32.0 °F 100% 30.22 in 3.0 mi North 9.2 mph - N/A Snow Light Snow
4:14 AM 32.0 °F 23.0 °F 32.0 °F 100% 30.23 in 2.5 mi NNW 11.5 mph - N/A Snow Light Snow
4:33 AM 32.0 °F 22.1 °F 32.0 °F 100% 30.23 in 1.5 mi North 13.8 mph 20.7 mph N/A Snow Light Snow
4:54 AM 32.0 °F 22.5 °F 30.2 °F 93% 30.23 in 2.5 mi North 12.7 mph - N/A Snow Light Snow
5:14 AM 32.0 °F 22.1 °F 30.2 °F 93% 30.24 in 2.5 mi North 13.8 mph - N/A Snow Light Snow
5:33 AM 30.2 °F 20.2 °F 30.2 °F 100% 30.25 in 2.0 mi NNW 12.7 mph 20.7 mph N/A Snow Light Snow
6:14 AM 30.2 °F 20.2 °F 28.4 °F 93% 30.28 in 1.5 mi NNW 12.7 mph - N/A Snow Light Snow
6:33 AM 30.2 °F 20.8 °F 28.4 °F 93% 30.29 in 1.2 mi NNW 11.5 mph - N/A Snow Light Snow
6:54 AM 28.4 °F 17.5 °F 28.4 °F 100% 30.31 in 2.0 mi NNW 13.8 mph 17.3 mph N/A Snow Light Snow
7:14 AM 28.4 °F 18.0 °F 26.6 °F 93% 30.32 in 7.0 mi NW 12.7 mph - N/A Snow Light Snow
7:33 AM 28.4 °F 20.4 °F 26.6 °F 93% 30.33 in 10.0 mi NW 8.1 mph - N/A Snow Light Snow
7:54 AM 28.4 °F 21.2 °F 26.6 °F 93% 30.33 in 10.0 mi NW 6.9 mph - N/A Snow Light Snow
8:14 AM 28.4 °F 18.5 °F 26.6 °F 93% 30.34 in 10.0 mi NW 11.5 mph - N/A   Overcast
8:34 AM 28.4 °F 18.0 °F 24.8 °F 86% 30.35 in 10.0 mi NW 12.7 mph - N/A   Overcast
8:54 AM 28.4 °F 18.5 °F 23.0 °F 80% 30.36 in 10.0 mi NW 11.5 mph - N/A   Overcast
9:13 AM 28.4 °F 19.1 °F 21.2 °F 74% 30.36 in 10.0 mi NW 10.4 mph - N/A   Mostly Cloudy
9:34 AM 28.4 °F 19.7 °F 21.2 °F 74% 30.37 in 10.0 mi NW 9.2 mph - N/A   Overcast
9:54 AM 28.4 °F 21.2 °F 21.2 °F 74% 30.38 in 10.0 mi NW 6.9 mph - N/A   Scattered Clouds
10:13 AM 28.4 °F 20.4 °F 21.2 °F 74% 30.39 in 10.0 mi NW 8.1 mph - N/A   Clear
10:34 AM 28.4 °F 21.2 °F 21.2 °F 74% 30.40 in 10.0 mi WNW 6.9 mph - N/A   Clear
10:54 AM 28.4 °F 19.7 °F 21.2 °F 74% 30.41 in 10.0 mi NW 9.2 mph - N/A   Clear
11:13 AM 28.4 °F 19.7 °F 21.2 °F 74% 30.42 in 10.0 mi WNW 9.2 mph - N/A   Clear
11:34 AM 30.2 °F 22.6 °F 21.2 °F 69% 30.41 in 10.0 mi NW 8.1 mph - N/A   Clear
11:54 AM 30.2 °F 22.6 °F 21.2 °F 69% 30.42 in 10.0 mi NW 8.1 mph - N/A   Clear
12:13 PM 30.2 °F 22.6 °F 21.2 °F 69% 30.42 in 10.0 mi WNW 8.1 mph - N/A   Clear
12:34 PM 30.2 °F 22.6 °F 21.2 °F 69% 30.43 in 10.0 mi NW 8.1 mph - N/A   Clear
12:54 PM 30.2 °F 21.3 °F 21.2 °F 69% 30.43 in 10.0 mi West 10.4 mph - N/A   Clear
1:13 PM 30.2 °F 24.3 °F 21.2 °F 69% 30.43 in 10.0 mi NW 5.8 mph - N/A   Clear
1:34 PM 30.2 °F 22.6 °F 21.2 °F 69% 30.44 in 10.0 mi NW 8.1 mph - N/A   Clear
1:54 PM 30.2 °F 24.3 °F 19.4 °F 64% 30.44 in 10.0 mi WNW 5.8 mph - N/A   Clear
2:14 PM 30.2 °F 25.4 °F 21.2 °F 69% 30.44 in 10.0 mi WNW 4.6 mph - N/A   Clear
2:34 PM 30.2 °F 24.3 °F 21.2 °F 69% 30.44 in 10.0 mi WNW 5.8 mph - N/A   Clear
2:54 PM 30.2 °F 25.4 °F 21.2 °F 69% 30.44 in 10.0 mi WSW 4.6 mph - N/A   Clear
3:14 PM 30.2 °F 26.7 °F 21.2 °F 69% 30.45 in 10.0 mi West 3.5 mph - N/A   Clear
3:34 PM 30.2 °F 26.7 °F 19.4 °F 64% 30.45 in 10.0 mi WSW 3.5 mph - N/A   Clear
3:54 PM 28.4 °F - 19.4 °F 69% 30.44 in 10.0 mi Calm Calm - N/A   Clear
4:14 PM 28.4 °F - 19.4 °F 69% 30.44 in 10.0 mi Calm Calm - N/A   Clear
4:34 PM 26.6 °F - 19.4 °F 74% 30.45 in 10.0 mi Calm Calm - N/A   Clear
4:54 PM 26.6 °F 22.6 °F 19.4 °F 74% 30.45 in 10.0 mi South 3.5 mph - N/A   Clear
5:34 PM 21.2 °F 16.4 °F 17.6 °F 86% 30.48 in 10.0 mi South 3.5 mph - N/A   Clear
5:53 PM 21.2 °F - 19.4 °F 93% 30.49 in 10.0 mi Calm Calm - N/A   Clear
6:14 PM 21.2 °F 16.4 °F 19.4 °F 93% 30.49 in 10.0 mi SSE 3.5 mph - N/A   Clear
6:34 PM 19.4 °F - 17.6 °F 93% 30.49 in 10.0 mi Calm Calm - N/A   Clear
6:54 PM 21.2 °F 14.9 °F 19.4 °F 93% 30.49 in 10.0 mi SSE 4.6 mph - N/A   Clear
7:14 PM 19.4 °F 14.3 °F 15.8 °F 86% 30.49 in 10.0 mi SE 3.5 mph - N/A   Clear
7:34 PM 19.4 °F - 17.6 °F 93% 30.49 in 10.0 mi Calm Calm - N/A   Clear
7:54 PM 17.6 °F - 15.8 °F 93% 30.49 in 10.0 mi Calm Calm - N/A   Clear
8:14 PM 19.4 °F 14.3 °F 17.6 °F 93% 30.49 in 10.0 mi SE 3.5 mph - N/A   Clear
8:34 PM 17.6 °F - 14.0 °F 86% 30.48 in 10.0 mi Calm Calm - N/A   Clear
8:54 PM 17.6 °F 12.3 °F 14.0 °F 86% 30.49 in 10.0 mi SSE 3.5 mph - N/A   Clear
9:14 PM 19.4 °F 14.3 °F 17.6 °F 93% 30.50 in 10.0 mi South 3.5 mph - N/A   Clear
9:34 PM 19.4 °F 14.3 °F 15.8 °F 86% 30.49 in 10.0 mi SSE 3.5 mph - N/A   Clear
9:54 PM 19.4 °F 12.8 °F 17.6 °F 93% 30.49 in 10.0 mi SSE 4.6 mph - N/A   Clear
10:14 PM 21.2 °F 16.4 °F 17.6 °F 86% 30.49 in 10.0 mi SSE 3.5 mph - N/A   Clear
10:34 PM 23.0 °F 17.0 °F 19.4 °F 86% 30.49 in 10.0 mi SSE 4.6 mph - N/A   Clear
10:53 PM 23.0 °F 15.8 °F 19.4 °F 86% 30.49 in 10.0 mi SSE 5.8 mph - N/A   Clear
11:14 PM 23.0 °F 15.8 °F 19.4 °F 86% 30.48 in 10.0 mi SSE 5.8 mph - N/A   Clear
11:33 PM 23.0 °F 15.8 °F 19.4 °F 86% 30.49 in 10.0 mi SSE 5.8 mph - N/A   Clear
11:53 PM 24.8 °F 19.1 °F 19.4 °F 80% 30.48 in 10.0 mi SSE 4.6 mph - N/A   Clear